Starlink 11464

operational
NORAD ID: 62473 Int'l Des: 2024-254 Owner: SPXS Country: US Constellation: starlink
LEOCIRCULAR

About Starlink 11464

Description loading...

Live Position

Loading 3D Globe...

Upcoming Passes

Altitude History

Altitude vs Time

uPlot chart will show altitude changes over time

Two-Line Element Set

1 62473U 24254M 25300.31936707 .00213914 00000-0 16220-2 0 9998
2 62473 43.0005 307.0615 0001211 268.1626 91.9103 15.70928154 48472
Epoch: Oct 27, 2025 • Age: 28 hours

Current Status

Altitude 355.5 km
Velocity 7.70 km/s
Sub-Earth Point 27.24°N, 126.04°W
Launch Date Dec 31, 2024
Age 0.8 years
Type internet

Technical Details

Classification Payload
Mass 960.00 kg
Dry Mass 910.00 kg
Total Mass 960.00 kg
Length 0.30 m
Diameter 4.10 m
Span 29.00 m
Shape Box + pan
Manufacturer SPXS
Bus Type Starlink V2MD
Phase Status In Orbit
Owner/State SPXS/US

Large Constellations

Loading constellations...